GSAT0218 (GALILEO 22) (43058 NORAD) Tracking and Keplerian Element Data

This shows tracking and keplerian element data for the satellite.

Feedback or suggestion? Click here.




ElementValue
Catalog43058
NameGSAT0218 (GALILEO 22)
Epoch Orbit618
Epoch Day344.94638842
Epoch Year2018
RAAN296.9795
Inclination56.7121
Eccentricity0.0005495
Argument of Perigee263.7291
Mean Anonmoly96.1984
Mean Motion1.70473638
Decay Rate-4.5E-07
L11 43058U 17079D 18344.94638842 -.00000045 00000-0 00000+0 0 9997
L22 43058 56.7121 296.9795 0005495 263.7291 96.1984 1.70473638 6185

Live tracking and technical data element details for GSAT0218 (GALILEO 22) (NORAD 43058). GSAT0218 (GALILEO 22) can be tracked NOW for your location showing map with azimuth and elevation plus other details from your city location.

Track the satellite on the map from your city or location and see movement details for azimuth, elevation, latitude, longitude, range, height, and movement on the map or in text.







IsCatalogInMostPopularTable: catalog: 43058, numindb: 187
Update: records affected: 1



GetName: 43058 GSAT0218 (GALILEO 22)

Hit Count: updated at: Thu, 13 Dec 2018 03:26:44 GMT